Regional Weather Roundup
Issued by NWS

Home | Current Version | Previous Version | Graphics & Text | Print | Product List | Glossary On
Versions: 1 2 3 4 5 6 7 8 9 10 11 12 13 14 15 16 17 18 19 20 21 22 23 24 25 26 27 28 29 30 31 32 33 34 35 36 37 38 39 40 41 42 43 44 45 46 47 48 49 50
300
ASUS45 KBOI 241410
RWRID

IDAHO REGIONAL WEATHER ROUNDUP
NATIONAL WEATHER SERVICE BOISE ID
700 AM MST TUE JAN 24 2017

NOTE: "FAIR" INDICATES FEW OR NO CLOUDS BELOW 12000 FEET
WITH NO SIGNIFICANT WEATHER AND/OR OBSTRUCTIONS TO VISIBILITY

IDZ012-014-241500-
SOUTHWEST IDAHO


CITY           SKY/WX    TMP DP  RH WIND       PRES   REMARKS
BOISE          MOCLDY    25  20  81 NW10      29.79R WCI  15
CALDWELL       MOCLDY    27  22  81 W16       29.83R WCI  15
MOUNTAIN HOME  MOCLDY    27  27 100 NW25      29.75R WCI  12
$$

IDZ016-017-241500-
SOUTHCENTRAL IDAHO


CITY           SKY/WX    TMP DP  RH WIND       PRES   REMARKS
BURLEY         LGT SNOW  27  22  81 W13       29.71R WCI  16
JEROME         LGT SNOW  24  23  96 W15       29.72R FOG     WCI  11
TWIN FALLS     LGT SNOW  25  22  88 SW16      29.72R FOG     WCI  12
$$

IDZ019>023-241500-
SOUTHEAST IDAHO


CITY           SKY/WX    TMP DP  RH WIND       PRES   REMARKS
IDAHO FALLS    LGT SNOW  23  21  92 NW17      29.65S FOG     WCI   9
POCATELLO      LGT SNOW  24  23  96 SW9       29.72R FOG     WCI  14
REXBURG        LGT SNOW  23  20  88 SE7       29.66R FOG     WCI  15
$$

IDZ006-010-011-018-031-032-241500-
CENTRAL IDAHO MOUNTAINS


CITY           SKY/WX    TMP DP  RH WIND       PRES   REMARKS
MCCALL         MOCLDY    23  16  74 N12       29.71R WCI  12
HAILEY         CLOUDY    18  18 100 CALM      29.67R
STANLEY          N/A      9   7  92 CALM      29.67R
SALMON         CLOUDY    12   9  85 CALM      29.79R
CHALLIS        CLOUDY    20  13  74 NW7       29.72R WCI  11
$$

IDZ002-004-006-007-026-241500-
NORTHERN IDAHO


CITY           SKY/WX    TMP DP  RH WIND       PRES   REMARKS
LEWISTON       CLOUDY    32  28  85 W6        30.00R WCI  26
LOWELL           N/A     32  26  78 S5        30.00R WCI  27
COEUR D`ALENE  CLOUDY    30  29  96 N3        29.95R FOG
MULLAN PASS    FOG       19  16  88 NW5       29.77R VSB 1/2 WCI  12
$$




USA.gov is the U.S. government's official web portal to all federal, state and local government web resources and services.